Regional Weather Roundup
Issued by NWS Charleston, SC

Current Version | Previous Version | Text Only | Print | Product List | Glossary Off
Versions: 1 2 3 4 5 6 7 8 9 10 11 12 13 14 15 16 17 18 19 20 21 22 23 24 25 26 27 28 29 30 31 32 33 34 35 36 37 38 39 40 41 42 43 44 45 46 47 48 49 50
000 ASUS42 KCHS 230713 RWRCHS REGIONAL WEATHER ROUNDUP NATIONAL WEATHER SERVICE CHARLESTON SC 300 AM EDT SAT JUL 23 2016 NOTE: "FAIR" INDICATES FEW OR NO CLOUDS BELOW 12,000 FEET WITH NO SIGNIFICANT WEATHER AND/OR OBSTRUCTIONS TO VISIBILITY. NOT ALL STATIONS ARE QUALITY CONTROLLED. USE DATA WITH CAUTION... ESPECIALLY DEWPOINT OBSERVATIONS. SCZ027-030-031-034>040-042>050-230800- ...SOUTHEAST SOUTH CAROLINA... CITY SKY/WX TMP DP RH WIND PRES REMARKS N CHARLESTON CLEAR 79 74 84 SW6 30.01F WATERFRONT PRK N/A 82 77 84 VRB2 29.99F HX 90 MOUNT PLEASANT FAIR 77 73 88 CALM 30.02S JOHNS ISLAND FAIR 81 77 89 CALM 30.02S PINOPOLIS N/A 81 75 83 SW7 29.95S MONCKS CORNER FAIR 73 72 94 CALM 30.02S SUMMERVILLE FAIR 75 75 100 CALM 30.03S BEAUFORT MCAS CLEAR 80 75 84 SW3 30.02F BEAUFORT ARPT FAIR 81 77 89 CALM 30.01F HILTON HEAD IS CLEAR 82 77 83 SW5 30.02F HX 91 WALTERBORO SUNNY 79 79 100 SW3 30.03F ALLENDALE FAIR 77 73 88 CALM 30.01F ...SOUTHERN MIDLANDS AND PEE DEE... CITY SKY/WX TMP DP RH WIND PRES REMARKS GEORGETOWN FAIR 73 72 94 CALM 30.02F KINGSTREE FAIR 75 72 88 CALM 30.01F ORANGEBURG CLEAR 77 74 90 SW6 30.02F BARNWELL NOT AVBL AIKEN FAIR 75 72 88 SW6 30.06F MANNING FAIR 79 73 83 SW6 30.02S COLUMBIA CLEAR 81 73 76 W5 30.00F SUMTER CLEAR 78 74 87 S6 30.00S FLORENCE CLEAR 78 74 87 SW6 30.01F MYRTLE BEACH PTCLDY 81 66 61 SW3 30.03S N MYRTLE BEACH CLEAR 82 73 74 SW6 30.01F $$ GAZ063-065-086>088-099>101-113>116-118-119-134>141-150-230800- ...SOUTHEAST GEORGIA... CITY SKY/WX TMP DP RH WIND PRES REMARKS SAVANNAH ARPT CLEAR 78 74 87 S6 30.03F HUNTER AAF PTCLDY 79 78 97 SW3 30.00F FORT STEWART CLOUDY 76 73 90 CALM 30.00F STATESBORO CLEAR 77 74 90 CALM 30.02F SYLVANIA NOT AVBL CLAXTON FAIR 74 73 98 CALM 30.03S ...CSRA...CENTRAL AND FAR SOUTHEAST GEORGIA... CITY SKY/WX TMP DP RH WIND PRES REMARKS THOMSON PTCLDY 77 74 92 CALM 30.07F AUGUSTA-BUSH CLEAR 75 72 90 CALM 30.01F AUGUSTA-DANIEL CLEAR 80 71 74 S6 30.03F SWAINSBORO FAIR 77 72 83 CALM 30.03F VIDALIA PTCLDY 75 70 83 CALM 30.03F EASTMAN FAIR 78 75 92 CALM 30.06S HAZLEHURST FAIR 78 74 85 CALM 30.02F ALMA PTCLDY 76 72 87 CALM 30.03F WAYCROSS CLOUDY 78 76 94 CALM 30.03S JESUP FAIR 73 73 100 CALM 30.03F BAXLEY FAIR 75 75 100 CALM 30.03S BRUNSWICK PTCLDY 77 73 88 CALM 30.04S SAINT SIMONS CLEAR 79 72 79 CALM 30.02F $$ SCZ027-028-034-036>038-045-046-048>050-GAZ119-141-230800- ...LAKE AND SUPPLEMENTAL COASTAL OBSERVATIONS... STATION/POSITION TIME TEMP WIND PRES WAVE SWELL AIR SEA DIR/SP/G HT/PER HT/PER/DIR (UTC) (F) (DEG/KT/KT) (MB) (FT/S) (FT/S/D) WINYAH BAY 0545 81 250/ 3 1016.0 LAKE MURRAY 0600 84 230/ 9/ 13 1015.9F ACE BASIN NERRS NOT AVBL FORT PULASKI 0600 83 88 220/ 6/ 8 1017.2F SAPELO ISLAND 0600 82 250/ 8 1017.0F $$ ANZ835-935-AMZ111-154-330-350-352-354-370-450-454-472-230800- ...C-MAN AND BUOY OBSERVATIONS... STATION/POSITION TIME TEMP WIND PRES WAVE SWELL AIR SEA DIR/SP/G HT/PER HT/PER/DIR (UTC) (F) (DEG/KT/KT) (MB) (FT/S) (FT/S/D) BUOY 41004 0650 84 86 220/ 10/ 14 1016.1F 3/ 9 3/140/ 9 BUOY 41008 0650 84 86 240/ 10/ 12 1016.4F 2/ 9 2/ 90/ 9 FOLLY BEACH CMAN 0600 84 210/ 11/ 12 1016.8F CAPERS NEARSHORE 0608 84 85 220/ 12/ 16 1016.4F FRIPP NEARSHORE 0608 84 85 220/ 12/ 16 1016.1F STATION/POSITION TIME TEMP WIND PRES WAVE SWELL AIR SEA DIR/SP/G HT/PER HT/PER/DIR (UTC) (F) (DEG/KT/KT) (MB) (FT/S) (FT/S/D) 5E ST. MARYS GA 0601 86 N/A 3/10 FRYING PAN BUOY 0600 84 86 230/ 8/ 10 1016.1F BUOY 41025 0650 83 85 230/ 12/ 14 1016.3F 3/ 9 2/110/ 9 CAPE LOOKOUT NC 0700 81 220/ 6/ 7 1016.1F BUOY 41002 0650 81 85 210/ 6/ 8 1016.9F 3/ 9 3/ 70/ 9 BUOY 41010 0620 84 86 CALM / 2 1017.2S ST AUGUSTINE FL 0700 78 87 300/ 3/ 5 1018.2R $$

USA.gov is the U.S. government's official web portal to all federal, state and local government web resources and services.